Miscellaneous Local Product
Issued by NWS North Platte, NE

Home | Current Version | Previous Version | Text Only | Print | Product List | Glossary On
Versions: 1 2 3 4 5 6 7 8 9 10 11 12 13 14 15 16 17 18 19 20 21 22 23 24 25 26 27 28 29 30 31 32 33 34 35 36 37 38 39 40 41 42 43 44 45 46 47 48 49 50
185
AXUS43 KLBF 241310
MISLBF


WESTERN AND NORTH CENTRAL NEBRASKA HOURLY WEATHER ROUNDUP
NATIONAL WEATHER SERVICE NORTH PLATTE NE
800 AM CDT THU MAY 24 2018

NOTE: "FAIR" INDICATES FEW OR NO CLOUDS BELOW 12,000 FEET WITH NO
SIGNIFICANT WEATHER AND/OR OBSTRUCTIONS TO VISIBILITY.

NOTE: STATIONS NOT REPORTING VARIABLES SUCH AS SKY/WEATHER OR
PRESSURE ARE PROVIDED BY RAWS AND APRS NETWORKS AND ARE NOT UNDER
NATIONAL WEATHER SERVICE QUALITY CONTROL.

...OBSERVATIONS IN AND NEAR THE EASTERN PANHANDLE OF NEBRASKA...

CITY           SKY/WX    TMP DP  RH WIND       PRES   REMARKS
PINE RIDGE     SUNNY     61  54  77 S15       29.97R
GORDON         FAIR      58  53  85 SW6       30.00S
CHADRON        SUNNY     60  57  89 SW7       29.97S
ALLIANCE       SUNNY     52  52 100 SW5       30.02S
SIDNEY         SUNNY     56  53  90 NW7       30.07R
CRESCENT LAKE    N/A     61  57  85 SE3         N/A
$$

...OBSERVATIONS IN NORTHERN NEBRASKA AND FAR SOUTHERN SOUTH DAKOTA...

CITY           SKY/WX    TMP DP  RH WIND       PRES   REMARKS
WINNER         FAIR      68  56  65 S16       29.91S
VALENTINE      CLOUDY    67  59  75 SE6       29.96S
AINSWORTH      CLOUDY    64  59  85 SE16G23   29.96F
O`NEILL        CLOUDY    67  60  78 S9        30.02S
THEDFORD       CLOUDY    62  59  88 SE13      30.00F
BROKEN BOW     PTSUNNY   64  60  87 E12       30.00F
ORD            CLOUDY    63  60  90 E6        30.00F
ALBION         MOSUNNY   69  66  90 CALM      30.04S
VALENTINE NWR    N/A     59  57  94 S12G20      N/A
HALSEY           N/A     58  57  98 E5          N/A
BUTTE            N/A     70  57  63 S15         N/A
CHAMBERS         N/A     64  61  89 SE3         N/A
EWING            N/A     66  62  87 S3          N/A
$$

...OBSERVATIONS IN SOUTHWEST NEBRASKA AND FAR NORTHEAST COLORADO...

CITY           SKY/WX    TMP DP  RH WIND       PRES   REMARKS
WRAY           FAIR      63  55  77 W6        29.99S
HOLYOKE        FAIR      63  57  82 NW8       30.01S
IMPERIAL       MOSUNNY   63  57  81 CALM      29.98S
OGALLALA       PTSUNNY   63  60  89 E6        30.00R
NORTH PLATTE   PTSUNNY   65  59  81 SE14      30.00S
MCCOOK         MOSUNNY   65  58  78 NE5       29.99R
LEXINGTON      PTSUNNY   65  60  83 E9        30.02S
STAPLETON        N/A     63  59  87 E5          N/A
GOTHENBURG       N/A     63  56  78 E5          N/A
CALLAWAY         N/A     61  59  92 E12         N/A
$$

...OBSERVATIONS IN CENTRAL LINCOLN COUNTY AREA...

CITY           SKY/WX    TMP DP  RH WIND       PRES   REMARKS
N.P. AIRPORT   PTSUNNY   65  59  81 SE14      30.00S
N.P. DOWNTOWN    N/A     66  59  78 CALM        N/A
N.P. SOUTHEAST   N/A     64  58  81 E6          N/A
$$

...OBSERVATIONS ACROSS THE ROCKIES AND WESTERN HIGH PLAINS...

CITY           SKY/WX    TMP DP  RH WIND       PRES   REMARKS
RAPID CITY     SUNNY     59  49  69 S9        29.91S
SCOTTSBLUFF    SUNNY     53  52  96 CALM      30.06R
CHEYENNE       SUNNY     52  40  63 NW8       30.16R
DENVER         MOSUNNY   57  44  62 SW7       30.14R
BERTHOUD PASS  FAIR      34  23  64 W14G21    30.51R WCI  24
COPPER MTN     SUNNY     43  19  39 SW8       30.50
MONARCH PASS   SUNNY     37  18  44 MISG      30.60R
ASPEN          SUNNY     45  26  47 S7        30.28R
STEAMBOAT      FAIR      38  35  90 CALM      30.25R
LARAMIE        SUNNY     46  37  71 VRB3      30.21R
CASPER         MOSUNNY   54  42  64 SW9       30.07R
$$

...OBSERVATIONS ACROSS THE NORTHERN PLAINS...

CITY           SKY/WX    TMP DP  RH WIND       PRES   REMARKS
BISMARCK       SUNNY     65  58  78 SW6       29.84R
FARGO          FAIR      73  64  73 S14       29.84S
PIERRE         PTSUNNY   63  57  81 S5        29.87R
SIOUX FALLS    CLOUDY    69  66  90 S8        29.98F
$$

...OBSERVATIONS ACROSS THE CENTRAL AND SOUTHERN PLAINS...

CITY           SKY/WX    TMP DP  RH WIND       PRES   REMARKS
OMAHA          CLOUDY    73  65  75 S14       30.05R
GRAND ISLAND   CLOUDY    68  64  87 E3        30.04F
KANSAS CITY    PTSUNNY   69  65  86 S10       30.11R
WICHITA        CLOUDY    69  63  81 SE7       30.03F
DODGE CITY     CLOUDY    68  55  63 SW12      30.02R
OKLAHOMA CITY  CLOUDY    71  67  87 S3        30.09S
DALLAS         MOSUNNY   74  69  85 S7        30.07S
AMARILLO       SUNNY     60  58  92 S13       30.14R
$$




USA.gov is the U.S. government's official web portal to all federal, state and local government web resources and services.